sat.trackr.live / text

‹ back to catalog

STARLINK-30584

NORAD 58089 · 2023-160Q

PAYLOAD ACTIVE UNKNOWN

§ Identity

Operator
Country
US
Launch date
2023-10-18
Launch site
AFETR
Launch vehicle
Mass (kg)
RCS (m²)

Purposes: comms

External: N2YO · Heavens-Above · Gunter

§ Orbital elements

Epoch: 2026-09-20T03:01:08.130720Z

Period
94.27 min
Inclination
42.9941°
Eccentricity
0.0001107
Mean motion
15.27574129 rev/d
Perigee alt
482.3 km
Apogee alt
483.8 km
Semi-major
6,861.2 km
B*
1.3040e-7
RAAN
59.6998°
Arg perigee
52.8506°
Mean anomaly
307.2447°
Rev number
16,268

§ Raw data

STARLINK-305841 58089U 23160Q   26263.12578855 -.00000258  00000+0  13040-6 0  99912 58089  42.9941  59.6998 0001107  52.8506 307.2447 15.27574129162685

JSON: /api/v1/satellites/58089 · /tle

For live sub-satellite position, see the globe view (requires WebGL).

§ Visibility from observer

Set your observer location to see the next 7 days of passes ≥ 10°. The values pass through the URL so the page stays shareable.

No JS? Fill the form by hand. The geolocation button needs JavaScript.